Tracking 29528 objects as of 14-Sep-2024
HD Live streaming from Space Station
objects crossing your sky now

GLOBALSTAR M040

Track GLOBALSTAR M040 now!
10-day predictions
GLOBALSTAR M040 is classified as:


NORAD ID: 25622
Int'l Code: 1999-004B
Perigee: 1,421.2 km
Apogee: 1,422.6 km
Inclination: 52.0 °
Period: 114.1 minutes
Semi major axis: 7792 km
RCS: 2.1681 m2 (large)
Launch date: February 9, 1999
Source: Globalstar (GLOB)
Launch site: TYURATAM MISSILE AND SPACE COMPLEX (TTMTR)
Your satellite tracking list
Your tracking list is empty




NASA's NSSDC Master Catalog

Two Line Element Set (TLE):
1 25622U 99004B   24256.72066926 -.00000017  00000-0  48639-3 0  9998
2 25622  51.9907 182.0598 0000940 108.5834 256.5307 12.61983109180226
Source of the keplerian elements: AFSPC